Regional Weather Roundup
Issued by NWS

Home | Current Version | Previous Version | Text Only | Print | Product List | Glossary Off
Versions: 1 2 3 4 5 6 7 8 9 10 11 12 13 14 15 16 17 18 19 20 21 22 23 24 25 26 27 28 29 30 31 32 33 34 35 36 37 38 39 40 41 42 43 44 45 46 47 48 49 50

000
ASUS43 KOAX 212110
RWRNE

WEATHER ROUNDUP FOR NEBRASKA
NATIONAL WEATHER SERVICE OMAHA NE
400 PM CDT MON MAY 21 2018

NOTES: SATELLITE DATA IS BEING USED TO AUGMENT CLOUD COVER ABOVE
       12000 FEET.
       "FAIR" INDICATES FEW OR NO CLOUDS BELOW 12,000 FEET WITH NO
       SIGNIFICANT WEATHER AND/OR OBSTRUCTIONS TO VISIBILITY.


NEZ001>004-019>022-054>056-212200-
NEBRASKA PANHANDLE

CITY           SKY/WX    TMP DP  RH WIND       PRES   REMARKS
SCOTTSBLUFF    SUNNY     73  55  53 E9        29.95F
ALLIANCE       SUNNY     69  54  58 S8        29.96F
CHADRON        SUNNY     75  55  49 S9        29.91F
GORDON         FAIR      73  54  51 S9        29.94F
KIMBALL        SUNNY     71  53  52 SE8       30.00S
SIDNEY         SUNNY     73  54  51 SE6       29.98F
$$

NEZ057>060-069>072-079>082-212200-
SOUTHWEST NEBRASKA

CITY           SKY/WX    TMP DP  RH WIND       PRES   REMARKS
NORTH PLATTE   MOSUNNY   75  59  57 SW15G22   29.96F
IMPERIAL       MOSUNNY   79  55  43 S13       29.95F
LEXINGTON      CLOUDY    73  60  63 S13G20    29.98F
MCCOOK         MOSUNNY   76  58  53 S18G29    29.95F
OGALLALA       MOSUNNY   73  57  56 S10       29.96F
$$

NEZ005>010-023>029-035>040-094-212200-
NORTH CENTRAL NEBRASKA

CITY           SKY/WX    TMP DP  RH WIND       PRES   REMARKS
VALENTINE      PTSUNNY   75  51  43 S10       29.95F
AINSWORTH      CLOUDY    71  54  53 S9        29.97F
BROKEN BOW     PTSUNNY   70  57  63 S14G21    29.99F
O`NEILL        MOSUNNY   74  52  47 SW8       30.00S
ORD            CLOUDY    71  56  58 S9G20     29.98F
THEDFORD       CLOUDY    73  55  54 S10       29.98S
$$

NEZ041-046>049-061>064-073>077-083>087-212200-
SOUTH CENTRAL NEBRASKA

CITY           SKY/WX    TMP DP  RH WIND       PRES   REMARKS
GRAND ISLAND   SUNNY     73  56  54 VRB7G16   30.01F
AURORA         SUNNY     72  55  55 SW6       30.00F
HASTINGS       SUNNY     73  56  54 SW7       30.00F
HEBRON         SUNNY     78  53  42 SW9       30.00F
HOLDREGE       MOSUNNY   73  58  60 S13G21    29.99F
KEARNEY        MOSUNNY   72  59  63 S9G17     30.00F
YORK           SUNNY     72  57  60 SW8       30.01F
$$

NEZ011>018-030>034-042>045-212200-
NORTHEAST NEBRASKA

CITY           SKY/WX    TMP DP  RH WIND       PRES   REMARKS
NORFOLK        SUNNY     74  50  42 SW14      29.98F
ALBION         MOSUNNY   73  57  57 SW10      30.00F
BLAIR          CLOUDY    71  59  65 SW8       30.01F
COLUMBUS       SUNNY     73  55  53 S10       30.01F
FREMONT        MOSUNNY   75  57  54 S3        30.00F
TEKAMAH        PTSUNNY   69  58  67 S5        30.00F
WAYNE          MOSUNNY   72  56  56 CALM      29.98F
$$

NEZ050>053-065>068-078-088>093-212200-
SOUTHEAST NEBRASKA

CITY           SKY/WX    TMP DP  RH WIND       PRES   REMARKS
LINCOLN        SUNNY     77  53  43 W9        30.01F
OMAHA EPPLEY   MOSUNNY   72  57  59 VRB6      30.01S
BEATRICE       SUNNY     77  56  47 SW5       30.00F
FALLS CITY     SUNNY     77  57  50 SW9       30.00F
NEBRASKA CITY  SUNNY     74  58  55 W8        30.01F
PLATTSMOUTH    MOSUNNY   74  57  56 NW9       30.01F
$$

NEZ044-045-051>053-067-212200-
OMAHA AREA

CITY           SKY/WX    TMP DP  RH WIND       PRES   REMARKS
OMAHA EPPLEY   MOSUNNY   72  57  59 VRB6      30.01S
BLAIR          CLOUDY    71  59  65 SW8       30.01F
FREMONT        MOSUNNY   75  57  54 S3        30.00F
MILLARD        PTSUNNY   74  59  60 W6        30.00F
OFFUTT AFB     MOSUNNY   72  58  60 W7        30.00F
PLATTSMOUTH    MOSUNNY   74  57  56 NW9       30.01F
WAHOO          FAIR      76  48  36 W8        30.00F
$$




USA.gov is the U.S. government's official web portal to all federal, state and local government web resources and services.